Volver al catálogo

STARLINK-4563

ActivoComunicacionesVLEO
NORAD 53561·PAYLOAD·🇺🇸 United States

Lanzado Aug 19, 2022 desde Cape Canaveral Space Force Station

Loading…

Próximos Pases (próximas 24 horas)

TLE

ActualizadoSource: CelesTrak SupGP

Época: Sep 14, 2026, 20:46 UTC

1 53561C 22101AL  26257.86576389  .00022337  00000+0  66045-3 0  2577
2 53561  53.1566 283.7084 0001228  96.9117 109.0600 15.34355073    19

Sigue STARLINK-4563 en tiempo real con AllMySat

Download on the App Store